www.pogodaiklimat.ru

Погода и климат >> Архив погоды >> Туркменистан >> Бурдалык


ПОГОДА в Бурдалыке

  • Прогноз погоды в Бурдалыке
  • Монитор погоды в Бурдалыке

АРХИВ ПОГОДЫ в Бурдалыке

Время (UTC), дата Ветер
(напр.,м/с)
 
Видим.   Явления Облачность Т
(С)
Тd
(С)
f
(%)
Тe
(С)
Тes
(С)
Комфортность P
(гПа)
Po
(гПа)
Тmin
(С)
Tmax
(С)
R
(мм)
R24
(мм)
S
(см)
00 12.06 штиль 0 10 км ясно +15.0 +7.8 62 +15 +15 1014.2 989.0
03 12.06 С 2 10 км ясно +22.6 +7.1 37 +23 +29 комфорт 1014.1 989.6 +14.8
06 12.06 С 4 10 км ясно +29.1 +5.5 22 +28 +40 жарко 1013.5 989.4 +14.8
09 12.06 СВ 6 10 км ясно +31.6 +4.0 17 +29 +37 жарко 1011.2 987.4
12 12.06 С 2 10 км ясно +32.6 +4.8 17 +30 +37 жарко 1009.7 986.0
15 12.06 С 1 10 км ясно +30.8 +4.5 19 +29 +29 жарко 1009.7 985.8 +32.8
18 12.06 Ю 1 10 км ясно +21.4 +10.6 50 +23 +23 комфорт 1010.4 985.8 +32.8
21 12.06 Ю 1 10 км ясно +20.3 +5.9 39 +22 +22 комфорт 1010.3 985.5
00 13.06 СВ 1 10 км ясно +15.2 +8.9 66 +16 +16 1010.1 985.0
03 13.06 В 2 10 км ясно +25.0 +12.7 46 +27 +32 жарко 1005.2 984.9 +15.0
06 13.06 С 2 10 км ясно +32.2 +9.3 24 +31 +49 жарко 1008.2 984.6 +15.0
09 13.06 З 3 10 км ясно +34.2 +10.0 23 +33 +49 жарко 1006.7 983.2
12 13.06 З 2 10 км ясно +35.0 +7.4 18 +33 +40 жарко 1004.9 981.4
15 13.06 З 2 10 км 3/0
[Ci sp]
+31.1 +14.4 36 +33 +33 душно 1004.7 981.0 +35.2
18 13.06 С 1 10 км 3/0
[Ci sp]
+22.2 +9.2 43 +24 +24 комфорт 1005.7 981.3 +35.2
21 13.06 штиль 0 10 км 3/0
[Ci sp]
+19.3 +10.4 56 +20 +20 1005.4 980.7
00 14.06 В 2 10 км ясно +17.8 +8.8 56 +18 +18 1005.3 980.5
03 14.06 В 2 10 км ясно +23.4 +12.0 49 +26 +31 жарко 1005.6 981.3 +17.6
06 14.06 штиль 0 10 км ясно +33.8 +7.8 20 +32 +56 опасность
солнечного
удара
1005.0 981.5 +17.6
09 14.06 С 2 10 км ясно +36.4 +8.0 18 +35 +54 опасность
солнечного
удара
1004.6 981.3
12 14.06 С 4 10 км ясно +36.2 +8.2 18 +34 +39 очень
жарко
1004.1 980.8
15 14.06 СЗ 3 10 км ясно +33.4 +10.5 25 +33 +33 жарко 1004.6 981.1 +33.6
18 14.06 штиль 0 10 км ясно +23.9 +13.2 51 +26 +26 жарко 1005.3 981.0 +36.6
21 14.06 штиль 0 10 км ясно +21.2 +12.6 58 +23 +23 комфорт 1005.6 981.1
00 15.06 З 1 10 км 4/0
[Ci sp]
+20.4 +14.8 70 +24 +24 комфорт 1005.7 981.1
03 15.06 СВ 6 10 км 8/8 1000 м
[Sc]
+28.4 +7.7 27 +28 +28 жарко 1007.1 983.2 +20.2
06 15.06 С 4 10 км 3/0
[Ci sp]
+33.8 +10.2 24 +33 +44 жарко 1006.8 983.3 +20.2
09 15.06 З 2 10 км 1/0
[Ci sp]
+36.6 +10.4 21 +36 +54 опасность
солнечного
удара
1006.3 983.0
12 15.06 З 2 10 км ясно +36.2 +8.8 19 +35 +41 очень
жарко
1006.2 982.9
15 15.06 З 1 10 км ясно +33.6 +11.9 27 +34 +34 очень
жарко
1006.6 983.1 +36.8
18 15.06 СЗ 1 10 км ясно +24.6 +9.2 38 +25 +25 комфорт 1008.4 984.1 +36.8
21 15.06 СЗ 2 10 км ясно +19.7 +11.8 60 +22 +22 комфорт 1008.8 984.1
00 16.06 С 2 10 км ясно +16.8 +12.1 74 +17 +17 1009.1 984.2
03 16.06 С 1 10 км ясно +24.3 +12.3 47 +26 +32 жарко 1009.5 985.2 +11.6
06 16.06 З 2 10 км ясно +32.5 +10.3 26 +32 +50 жарко 1009.0 985.4 +16.6
09 16.06 З 5 10 км ясно +34.2 +9.8 22 +33 +43 жарко 1008.1 984.6
12 16.06 З 3 10 км ясно +35.0 +6.4 17 +33 +39 жарко 1007.5 984.0
15 16.06 З 2 10 км ясно +30.8 +10.4 28 +31 +31 жарко 1007.5 983.7 +35.2
18 16.06 З 1 10 км ясно +21.0 +11.1 53 +24 +24 комфорт 1008.5 983.9 +35.2
21 16.06 штиль 0 10 км ясно +18.6 +10.2 58 +19 +19 1008.0 983.2
00 17.06 штиль 0 10 км ясно +16.0 +9.7 66 +16 +16 1007.6 982.6
03 17.06 З 1 10 км ясно +22.4 +10.9 48 +24 +31 комфорт 1007.6 983.2 +15.8
06 17.06 С 4 10 км ясно +31.9 +11.9 29 +32 +44 жарко 1006.8 983.2 +15.8
09 17.06 З 2 10 км ясно +34.4 +10.9 24 +34 +53 опасность
солнечного
удара
1006.3 982.8
12 17.06 З 2 10 км ясно +35.8 +12.0 24 +36 +42 очень
жарко
1004.5 981.1
15 17.06 Ю 2 10 км ясно +31.6 +11.7 30 +32 +32 жарко 1004.4 980.8 +36.0
18 17.06 СЗ 2 10 км ясно +23.6 +13.6 53 +26 +26 жарко 1005.7 981.4 +36.0
21 17.06 СЗ 2 10 км ясно +21.4 +11.5 53 +23 +23 комфорт 1005.7 981.2
00 18.06 С 1 10 км ясно +17.8 +11.2 65 +19 +19 1006.0 981.2
03 18.06 С 2 10 км ясно +25.4 +10.9 40 +26 +32 жарко 1005.9 981.6 +17.6
06 18.06 С 5 10 км ясно +33.6 +10.6 25 +33 +43 жарко 1005.3 981.8 +17.6
09 18.06 С 4 10 км ясно +35.4 +10.7 22 +34 +47 очень
жарко
1004.9 981.5
12 18.06 СВ 3 10 км ясно +36.2 +12.6 24 +36 +42 очень
жарко
1003.8 980.5
15 18.06 С 2 10 км ясно +33.8 +12.2 27 +34 +34 очень
жарко
1004.0 980.5 +36.4
18 18.06 С 1 10 км ясно +28.6 +11.9 36 +30 +30 жарко 1005.0 981.1 +36.4
21 18.06 СВ 2 10 км ясно +23.6 +10.9 45 +25 +25 комфорт 1005.0 980.8

 

Местоположение метеостанции Бурдалык (Лебапский велаят, Туркменистан): широта 38.47 долгота 64.37 высота над уровнем моря 212 м.

В архиве по умолчанию представлена погода в Бурдалыке за последнюю неделю. Архивные данные за месяц целиком и за предыдущие месяцы, начиная с января 2011 года, Вы можете получить, выбрав интересующий диапазон дат из раскрывающегося списка и нажав кнопку "Ввод!".


*Определитесь, кто Вы:
робот инопланетянин человек

Внимание! Время в таблицах - всемирное. Для получения местного времени необходимо прибавить поправку, которая равна 5 ч.

Смотрите также архив погоды в соседних городах и на ближайших метеорологических станциях:

Погода в Туркменабаде (Лебапский велаят, Туркменистан) (95 км)
Погода в Атамурате (Лебапский велаят, Туркменистан) (102 км)
Погода в Карши (Кашкадарьинская область, Узбекистан) (123 км)
Погода в Каракуле (Бухарская область, Узбекистан) (123 км)
Погода в Бухаре (Бухарская область, Узбекистан) (141 км)
Погода в Багтыярлыке (Марыйский велаят, Туркменистан) (144 км)
Погода в Гузаре (Кашкадарьинская область, Узбекистан) (166 км)
Погода в Койтендаге (Дашогузский велаят, Туркменистан) (179 км)
Погода в Дехканабаде (Сырдарьинская область, Узбекистан) (186 км)
Погода в Навои (Навоийская область, Узбекистан) (203 км)

Пояснения к столбцам:

Ветер - указаны скорость ветра в м/с - средняя за 10 мин, порывы в срок и между сроками (в фигурных скобках) и направление, откуда дует ветер: С - северный, СВ - северо-восточный, В - восточный, ЮВ - юго-восточный, Ю - южный, ЮЗ - юго-западный, З - западный, СЗ - северо-западный.
Видимость - горизонтальная дальность видимости в метрах или километрах. При видимости от 1 до 10 км при отсутствии осадков обычно наблюдается дымка, при ухудшении видимости до 1 км и менее - туман. В сухую погоду видимость может ухудшаться дымом, пылью или мглою.
Явления - указаны атмосферные явления, наблюдавшиеся в срок или в последний час перед сроком; фигурными скобками обозначены явления, наблюдавшиеся между сроками (за 1-3 часа до срока); квадратными скобками обозначены град или гололедные отложения с указанием их диаметра в мм.
Облачность - указаны через наклонную черту общая и нижняя облачность в баллах и высота нижней границы облаков в метрах; квадратными скобками обозначены формы облаков: Ci - перистые, Cs - перисто-слоистые, Cc - перисто-кучевые, Ac - высококучевые, As - высокослоистые, Sc - слоисто-кучевые, Ns - слоисто-дождевые, Cu - кучевые, Cb - кучево-дождевые. Подробнее классификацию облаков см. в Атласе облаков (PDF).
T - Температура воздуха - температура, измеренная на высоте 2 м над землей.
Td - Температура точки росы - температура, при понижении до которой содержащийся в воздухе водяной пар достигнет насыщения.
f - Относительная влажность воздуха - влажноcть воздуха, измеренная на высоте 2 м над землей.
Te - Эффективная температура - температура, которую ощущает одетый по сезону человек в тени. Характеристика душности погоды. При расчете учитывается влияние влажности воздуха и скорости ветра на теплоощущения человека.
Tes - Эффективная температура на солнце - температура, которую ощущает человек, с поправкой на солнечный нагрев. Характеристика знойности погоды. Зависит от высоты солнца над горизонтом, облачности и скорости ветра. Ночью, в пасмурную погоду, а также при ветре 12 м/с и более поправка равна нулю.
P - Атмосферное давление - приведенное к уровню моря атмосферное давление.
Po - Атмосферное давление - измеренное на уровне метеостанции атмосферное давление.
Tmin - Минимальная температура - минимум температуры воздуха на высоте 2 м над землей.
Tmax - Максимальная температура - максимум температуры воздуха на высоте 2 м над землей.
R - Количество осадков - Количество выпавших осадков за период времени, мм. При наведении курсора мыши на число - период времени, за который выпало указанное количество осадков.
R24 - Количество осадков - Количество выпавших осадков за 24 часа, мм.
S - Снежный покров - Высота снежного покрова, см. При наведении курсора мыши на число - состояние снежного покрова и степень покрытия местности в баллах.